[[{"header":{"parameterUnit":"m.s-1","parameterCategory":1,"la1":30.2991,"la2":30.254,"lo1":-89.0895,"lo2":-89.0444,"dy":0.0017,"dx":0.0017,"nx":28,"ny":28,"refTime":"2025-03-18T09:00:00:Z","depth":0,"parameterNumber":2,"parameterNumberName":"U-component_of_WINDS"},"data":[0,0,0,0,0,0,0,0,0,0,0,0,0,0,0,0,0,0,0,0,0,0,0,0,0,0,0,0,0,0,0,0,0,0,0,0,0,0,0,0,0,0,0,0,0,0,0,0,0,0,0,0,0,0,0,0,0,0,1.5367,1.5368,0,1.5473,1.5474,1.5475,1.5373,1.5369,1.5365,1.5361,1.5475,1.5482,1.5489,0,0,0,0,0,0,0,0,0,0,0,0,0,1.5084,1.509,1.5367,1.5368,1.537,1.5472,1.5474,1.5475,1.5374,1.5369,1.5364,1.5359,1.5473,1.5481,1.5489,0,0,0,0,0,0,0,0,0,0,0,0,0,1.5201,1.5092,1.5367,1.5331,1.5329,1.5472,1.5474,1.5476,1.5375,1.5369,1.5363,1.5357,1.547,1.548,1.5491,1.5676,0,0,1.5522,1.5526,0,0,0,0,0,0,0,0,1.5194,1.5211,1.5335,1.5334,1.5332,1.5403,1.5416,1.5543,1.5377,1.5358,1.5361,1.5354,1.5457,1.5468,1.5501,1.5681,1.5686,1.5523,1.5529,1.5533,1.5536,0,0,0,0,0,0,0,1.5186,1.5206,1.5409,1.5337,1.5335,1.5312,1.5322,1.544,1.544,1.5359,1.5352,1.5365,1.5455,1.5491,1.5503,1.5687,1.5522,1.5531,1.5538,1.5542,1.6027,1.6033,0,0,0,0,0,0,1.5181,1.52,1.5406,1.5412,1.5246,1.5322,1.5333,1.5387,1.5439,1.5441,1.537,1.536,1.5477,1.5491,1.5507,1.5728,1.5533,1.5543,1.5549,1.602,1.6029,1.6036,0,0,0,0,0,0,1.5175,1.52,1.5401,1.5304,1.5328,1.5334,1.5395,1.5392,1.5428,1.5447,1.5448,1.5407,1.5473,1.5492,1.5634,1.5731,1.5547,1.5557,1.6012,1.6023,1.6032,1.6172,0,0,0,0,0,0,1.5168,1.5199,1.5268,1.5306,1.5333,1.5526,1.54,1.5398,1.5446,1.5433,1.5482,1.5484,1.5469,1.562,1.5645,1.5742,1.5565,1.6004,1.6017,1.6029,1.6159,1.6186,1.6209,0,0,0,0,0,1.5158,1.5304,1.5272,1.5297,1.5419,1.5531,1.5547,1.5525,1.5454,1.5524,1.5537,1.5483,1.5716,1.5635,1.5662,1.5764,1.5998,1.6013,1.6028,1.6148,1.6181,1.6208,0,0,0,0,0,0,1.5278,1.5308,1.5273,1.5435,1.5481,1.5514,1.5602,1.556,1.5629,1.5615,1.5587,1.5599,1.575,1.5771,1.568,1.5947,1.5846,1.5867,1.5928,1.5959,1.5983,1.5976,1.5573,0,0,0,0,0,1.5323,1.5409,1.5432,1.5573,1.5598,1.5596,1.5644,1.5623,1.5671,1.5691,1.5713,1.5763,1.5848,1.5904,1.5983,1.6161,1.6172,1.6245,1.627,1.629,1.631,1.6408,1.6441,1.6086,1.6086,1.6085,0,0,1.5417,1.5444,1.5501,1.5598,1.5631,1.5724,1.5613,1.5716,1.5785,1.5707,1.5842,1.5861,1.5915,1.6077,1.6149,1.6099,1.641,1.631,1.6326,1.6334,1.6427,1.6461,1.6491,1.6096,1.6094,1.6093,0,0,1.5637,1.5665,1.5787,1.5822,1.5874,1.5872,1.5901,1.5941,1.595,1.6085,1.6029,1.6112,1.6258,1.6299,1.6339,1.6577,1.6531,1.6603,1.6734,1.683,1.6858,1.6883,1.697,1.7001,1.6622,1.6623,1.6623,0,1.5748,1.5883,1.5855,1.5962,1.6007,1.5939,1.6063,1.61,1.6176,1.621,1.6152,1.6334,1.6366,1.6537,1.6595,1.663,1.6664,1.6598,1.6856,1.6881,1.6903,1.6986,1.7018,1.6631,1.663,1.6629,1.6628,0,1.6019,1.6114,1.6206,1.628,1.6335,1.6451,1.6442,1.6502,1.6477,1.6482,1.6622,1.6658,1.6743,1.6782,1.6759,1.6952,1.6919,1.686,1.6757,1.6946,1.7023,1.7055,1.6643,1.664,1.6638,1.6636,0,0,1.6317,1.6373,1.6408,1.6441,1.6494,1.6568,1.6681,1.6763,1.6817,1.6872,1.6968,1.7093,1.7038,1.7084,1.7065,1.715,1.7338,1.708,1.7081,1.7128,1.7555,1.7601,1.7638,1.7307,1.7313,1.7318,1.7551,0,1.6539,1.6734,1.6712,1.6899,1.6988,1.6925,1.7024,1.7069,1.7077,1.7156,1.7165,1.7255,1.7175,1.7203,1.7284,1.7298,1.7424,1.7281,1.7399,1.7404,1.7389,1.7677,1.7726,1.7944,1.7581,1.7586,1.759,0,1.6825,1.6889,1.7084,1.7124,1.7161,1.725,1.7325,1.74,1.745,1.745,1.7502,1.7469,1.7586,1.748,1.7642,1.7545,1.7593,1.7607,1.7615,1.7627,1.7509,1.7699,1.8013,1.8047,1.7637,1.7633,1.7629,0,1.7025,1.716,1.7294,1.7325,1.7375,1.7439,1.7464,1.7507,1.7559,1.7625,1.7659,1.7738,1.7782,1.7846,1.7836,1.776,1.8002,1.7895,1.8008,1.8008,1.8062,1.8059,1.8391,1.8091,1.809,1.809,1.8089,0,1.7276,1.7399,1.7385,1.7468,1.7604,1.758,1.7716,1.7732,1.7773,1.786,1.7811,1.7894,1.7875,1.7959,1.7952,1.8089,1.8109,1.8114,1.8111,1.8119,1.8119,1.8151,1.8136,1.8098,1.8096,1.8095,1.8093,0,1.7523,1.7518,1.7661,1.7697,1.7709,1.7808,1.784,1.792,1.7924,1.8035,1.806,1.8068,1.8164,1.816,1.8269,1.8265,1.8433,1.8412,1.8416,1.8412,1.8525,1.8516,1.889,1.8939,1.8606,1.8609,1.8612,0,1.7684,1.7777,1.7822,1.7876,1.7905,1.7992,1.8044,1.8024,1.8081,1.8146,1.8219,1.831,1.8382,1.8539,1.8556,1.864,1.8622,1.8747,1.8634,1.864,1.8626,1.8621,1.8631,1.877,1.8773,1.8776,1.8779,0,1.7972,1.7965,1.8041,1.8117,1.8181,1.824,1.8294,1.8342,1.8328,1.8395,1.8492,1.8548,1.8659,1.8751,1.8832,1.8859,1.8819,1.8814,1.8845,1.8855,1.8854,1.8858,1.8478,1.8806,1.8803,1.8801,1.88,1.8799,1.8181,1.8262,1.8307,1.8394,1.8432,1.8485,1.8562,1.8576,1.8655,1.8743,1.8727,1.8837,1.8887,1.8991,1.9026,1.9113,1.9068,1.9112,1.9124,1.9136,1.9149,1.8839,1.9127,1.9126,1.9126,1.9125,1.9124,0,1.8468,1.8494,1.8574,1.8651,1.8721,1.8674,1.8732,1.8794,1.889,1.8939,1.9011,1.9124,1.9213,1.9238,1.9324,1.939,1.9373,1.9413,1.9409,1.9416,1.9183,1.9148,1.9425,1.9425,1.9425,1.9425,1.9425,1.9425,1.8625,1.8758,1.8758,1.8911,1.8937,1.9042,1.908,1.9129,1.9168,1.9296,1.9369,1.9384,1.9424,1.9514,1.9595,1.96,1.9635,1.9683,1.9681,1.9463,1.9433,1.9404,1.9371,1.9691,1.9691,1.9907,1.991,1.9911]},{"header":{"parameterUnit":"m.s-1","parameterCategory":1,"la1":30.2991,"la2":30.254,"lo1":-89.0895,"lo2":-89.0444,"dy":0.0017,"dx":0.0017,"nx":28,"ny":28,"refTime":"2025-03-18T09:00:00:Z","depth":0,"parameterNumber":3,"parameterNumberName":"V-component_of_WINDS"},"data":[0,0,0,0,0,0,0,0,0,0,0,0,0,0,0,0,0,0,0,0,0,0,0,0,0,0,0,0,0,0,0,0,0,0,0,0,0,0,0,0,0,0,0,0,0,0,0,0,0,0,0,0,0,0,0,0,0,0,-0.5029,-0.5028,0,-0.4923,-0.4921,-0.492,-0.4914,-0.4915,-0.4916,-0.4918,-0.4801,-0.4797,-0.4793,0,0,0,0,0,0,0,0,0,0,0,0,0,-0.5219,-0.5216,-0.5029,-0.5028,-0.5026,-0.4923,-0.4921,-0.492,-0.4914,-0.4915,-0.4917,-0.4918,-0.4803,-0.4798,-0.4793,0,0,0,0,0,0,0,0,0,0,0,0,0,-0.5127,-0.5215,-0.5029,-0.5011,-0.5008,-0.4923,-0.4921,-0.4919,-0.4913,-0.4915,-0.4917,-0.4919,-0.4804,-0.4798,-0.4792,-0.4716,0,0,-0.4773,-0.477,0,0,0,0,0,0,0,0,-0.5132,-0.512,-0.5015,-0.5012,-0.5009,-0.4934,-0.4946,-0.4851,-0.4913,-0.4949,-0.4918,-0.492,-0.4843,-0.4834,-0.481,-0.471,-0.4705,-0.4772,-0.4768,-0.4765,-0.4764,0,0,0,0,0,0,0,-0.5139,-0.5125,-0.4987,-0.5013,-0.501,-0.5006,-0.4995,-0.4928,-0.4887,-0.4946,-0.4945,-0.4933,-0.4842,-0.4816,-0.4807,-0.4703,-0.4772,-0.4767,-0.4763,-0.476,-0.4534,-0.4532,0,0,0,0,0,0,-0.515,-0.513,-0.499,-0.4983,-0.5077,-0.5001,-0.4988,-0.4956,-0.4888,-0.4879,-0.4932,-0.4933,-0.4826,-0.4814,-0.4803,-0.4708,-0.4765,-0.4759,-0.4756,-0.4536,-0.4534,-0.4531,0,0,0,0,0,0,-0.5154,-0.5137,-0.4994,-0.5056,-0.5038,-0.4996,-0.4959,-0.4953,-0.4927,-0.4877,-0.4869,-0.4913,-0.4827,-0.4812,-0.4737,-0.4704,-0.4757,-0.4751,-0.4539,-0.4535,-0.4532,-0.4518,0,0,0,0,0,0,-0.5159,-0.5139,-0.5111,-0.5056,-0.5035,-0.4933,-0.4957,-0.4949,-0.4916,-0.4917,-0.4857,-0.4849,-0.4827,-0.4747,-0.4731,-0.4696,-0.4746,-0.4542,-0.4537,-0.4533,-0.4521,-0.4514,-0.4509,0,0,0,0,0,-0.5166,-0.511,-0.511,-0.5093,-0.5,-0.4931,-0.4918,-0.4897,-0.4914,-0.4884,-0.4852,-0.4851,-0.471,-0.4739,-0.4722,-0.4684,-0.4544,-0.4539,-0.4534,-0.4524,-0.4516,-0.4509,0,0,0,0,0,0,-0.5159,-0.5102,-0.5101,-0.5026,-0.4984,-0.493,-0.4892,-0.4889,-0.4839,-0.4842,-0.4814,-0.4801,-0.4727,-0.4698,-0.4731,-0.4605,-0.4629,-0.462,-0.4627,-0.4619,-0.4613,-0.4621,-0.4741,0,0,0,0,0,-0.515,-0.5101,-0.5053,-0.4991,-0.497,-0.4935,-0.4904,-0.4891,-0.4845,-0.4826,-0.4789,-0.4742,-0.4687,-0.4652,-0.4599,-0.4517,-0.4503,-0.4482,-0.4476,-0.4471,-0.4463,-0.4417,-0.4407,-0.4515,-0.4515,-0.4515,0,0,-0.5128,-0.5091,-0.5061,-0.4988,-0.4954,-0.4902,-0.492,-0.4864,-0.4824,-0.4817,-0.4745,-0.4716,-0.4662,-0.4584,-0.4547,-0.4557,-0.4431,-0.4465,-0.4462,-0.4456,-0.4411,-0.44,-0.4391,-0.4512,-0.4512,-0.4513,0,0,-0.5061,-0.5029,-0.4974,-0.4939,-0.4888,-0.4865,-0.4852,-0.4799,-0.478,-0.4708,-0.4701,-0.4652,-0.4559,-0.4521,-0.4489,-0.4408,-0.4404,-0.4391,-0.4358,-0.4313,-0.4305,-0.4297,-0.4266,-0.4256,-0.4384,-0.4384,-0.4384,0,-0.504,-0.4964,-0.4945,-0.489,-0.4857,-0.4851,-0.4793,-0.476,-0.4692,-0.4669,-0.4682,-0.4564,-0.4528,-0.4439,-0.442,-0.4395,-0.4377,-0.4397,-0.4308,-0.43,-0.4292,-0.4263,-0.4252,-0.4383,-0.4383,-0.4383,-0.4383,0,-0.4939,-0.4886,-0.4847,-0.4785,-0.4748,-0.4692,-0.4662,-0.4626,-0.4617,-0.4592,-0.4517,-0.4473,-0.4411,-0.4389,-0.4378,-0.4299,-0.4307,-0.4314,-0.4336,-0.4281,-0.4253,-0.4242,-0.4381,-0.4381,-0.4382,-0.4382,0,0,-0.4864,-0.4794,-0.4779,-0.4751,-0.4694,-0.4651,-0.4593,-0.4535,-0.4504,-0.4458,-0.4407,-0.4329,-0.4335,-0.4299,-0.4284,-0.4245,-0.4182,-0.4256,-0.4255,-0.4243,-0.4089,-0.4083,-0.4071,-0.418,-0.4177,-0.4176,-0.4093,0,-0.479,-0.4691,-0.4672,-0.4584,-0.4533,-0.4527,-0.4477,-0.4435,-0.441,-0.4362,-0.4333,-0.4278,-0.4292,-0.427,-0.4231,-0.4198,-0.415,-0.4204,-0.413,-0.4127,-0.4142,-0.4056,-0.4049,-0.3974,-0.4083,-0.4081,-0.4079,0,-0.469,-0.4644,-0.4552,-0.4502,-0.448,-0.4435,-0.4379,-0.4334,-0.4286,-0.4271,-0.4231,-0.422,-0.4157,-0.4184,-0.4096,-0.4133,-0.4102,-0.4081,-0.4078,-0.4068,-0.4099,-0.4043,-0.395,-0.3938,-0.4062,-0.4063,-0.4065,0,-0.4643,-0.4558,-0.4491,-0.4467,-0.4407,-0.4376,-0.4348,-0.4303,-0.4268,-0.4219,-0.4196,-0.4139,-0.4107,-0.4062,-0.4036,-0.4058,-0.3949,-0.3974,-0.3932,-0.3933,-0.3908,-0.391,-0.3807,-0.3891,-0.3891,-0.3891,-0.3892,0,-0.4562,-0.4505,-0.4469,-0.4428,-0.4364,-0.4342,-0.4278,-0.4251,-0.421,-0.4162,-0.4152,-0.4107,-0.4075,-0.4024,-0.4003,-0.3932,-0.3918,-0.3902,-0.3897,-0.3902,-0.3904,-0.388,-0.3884,-0.3888,-0.3889,-0.389,-0.389,0,-0.4497,-0.4471,-0.4398,-0.4348,-0.4334,-0.4289,-0.4244,-0.4203,-0.4179,-0.4118,-0.4102,-0.4062,-0.4002,-0.3972,-0.3896,-0.3881,-0.3802,-0.38,-0.3819,-0.3816,-0.3776,-0.3779,-0.3652,-0.3634,-0.3732,-0.3731,-0.373,0,-0.4446,-0.4403,-0.4348,-0.4317,-0.429,-0.4238,-0.4204,-0.4181,-0.4145,-0.4087,-0.4051,-0.3992,-0.3942,-0.3846,-0.3809,-0.375,-0.3746,-0.3706,-0.3737,-0.3744,-0.3744,-0.3746,-0.3741,-0.37,-0.3699,-0.3698,-0.3697,0,-0.4357,-0.4347,-0.4299,-0.4247,-0.4207,-0.4163,-0.412,-0.4094,-0.4064,-0.4023,-0.3963,-0.3925,-0.3849,-0.3788,-0.3727,-0.3697,-0.369,-0.3688,-0.3675,-0.3679,-0.3691,-0.3683,-0.3802,-0.3691,-0.3691,-0.3692,-0.3692,-0.3692,-0.4297,-0.4258,-0.4214,-0.416,-0.4126,-0.4087,-0.4045,-0.4017,-0.3967,-0.3905,-0.3893,-0.3829,-0.378,-0.3698,-0.3666,-0.3613,-0.3622,-0.3603,-0.3598,-0.3594,-0.3591,-0.3701,-0.3602,-0.3602,-0.3603,-0.3603,-0.3603,0,-0.4206,-0.4178,-0.413,-0.4071,-0.4029,-0.4031,-0.3983,-0.3947,-0.3891,-0.3848,-0.38,-0.373,-0.3671,-0.363,-0.357,-0.3536,-0.3531,-0.3521,-0.3522,-0.3515,-0.3588,-0.3604,-0.3525,-0.3525,-0.3525,-0.3525,-0.3525,-0.3525,-0.4154,-0.4088,-0.4073,-0.3988,-0.396,-0.3898,-0.3871,-0.3834,-0.3799,-0.3722,-0.3674,-0.3649,-0.3606,-0.3543,-0.3488,-0.3478,-0.3455,-0.3444,-0.3433,-0.3502,-0.351,-0.3517,-0.3533,-0.344,-0.344,-0.3364,-0.3363,-0.3363]}]]